WGS F8 (USA 272)

Last updated on Oct. 1, 2020, 5:42 a.m. UTC

1 41879U 16075A   20274.81863094 -.00000216  00000-0  00000+0 0  9991
2 41879   0.0229 225.1662 0000370 246.6318 342.7287  1.00272761 14013
UTC
Height (km)
Latitude
Longitude
Inclination
Orbital Period
UTC large
Height (km)
Speed (km/s)
/
Latitude / Longitude
Inclination (degrees)
Orbital Period (minutes)
Azimuth
Elevation
Range (km)
Doppler Factor
iOS Compass Heading
iOS Angle

Next 30 passes for location: Hong Kong

Rise time Rise Azimuth (degrees) Set time Set Azimuth (degrees) Duration Max altitude (degrees)

No matching passes for this satellites